(234404) = 2001 RF14 = 2007 VT178

Discovered at Socorro on 2001-09-10 by LINEAR.

Orbit

Orbit type: Main Belt

Note: WebGL enabled browser required.

epoch2023-09-13.0
epoch JD2460200.5
perihelion date2023-06-24.44851
perihelion JD2460119.94851
argument of perihelion (°)191.68376
ascending node (°)140.70362
inclination (°)1.86295
eccentricity0.2095800
perihelion distance (AU)2.4461259
Tisserand w.r.t. Jupiter3.2
ΔV w.r.t. Earth (km/sec)9.9
semimajor axis (AU)3.0947167
mean anomaly (°)14.58297
mean daily motion (°/day)0.18103920
aphelion distance (AU)3.743
period (years)5.44
P-vector [x]0.88603370
P-vector [y]-0.42270220
P-vector [z]-0.19043932
Q-vector [x]0.46316345
Q-vector [y]0.82527810
Q-vector [z]0.32310320
absolute magnitude16.24
phase slope0.15
uncertainty0
referenceMPEC 2024-A48
observations used327
oppositions14
arc length (days)8617
first opposition used2000
last opposition used2023
residual rms (arc-secs)0.72
perturbers coarse indicatorM-v
perturbers precise indicator003Ek
first observation date used2000-04-10.0
last observation date used2023-11-13.0
computer nameMPCLINUX
Minimum Orbit Intersection Distances (in AU)
for orbit epoch: 2460200.5, reference: E2024-A48
Mercury2.04342
Venus1.71956
Earth1.43515
Mars1.06533
Jupiter1.62115
Saturn5.48961
Uranus14.7132
Neptune26.6586

Observations

334 total observations over interval: 2000 04 10.36503 – 2023 11 13.254223
These data are available for download (format description).

Date (UT) J2000 RA J2000 Dec Magn Location Ref
2000 04 10.36503 14 55 18.97 -14 03 38.8 22.5 R 695 – Kitt Peak MPS 226710
2000 04 10.44233 14 55 16.10 -14 03 24.1   695 – Kitt Peak MPS 226710
2001 08 16.27707 22 44 34.13 -08 39 57.3 18.7   704 – Lincoln Laboratory ETS, New Mexico MPS 37952
2001 08 16.28933 22 44 33.63 -08 40 01.1 19.6   704 – Lincoln Laboratory ETS, New Mexico MPS 37952
2001 08 16.30165 22 44 33.13 -08 40 03.7 19.2   704 – Lincoln Laboratory ETS, New Mexico MPS 37952
2001 08 16.32612 22 44 32.14 -08 40 11.7 19.5   704 – Lincoln Laboratory ETS, New Mexico MPS 37952
2001 08 23.27583 22 39 54.37 -09 15 10.6 19.1 R 699 – Lowell Observatory-LONEOS MPS 37952
2001 08 23.29920 22 39 53.46 -09 15 17.4   699 – Lowell Observatory-LONEOS MPS 37952
2001 08 23.32259 22 39 52.39 -09 15 24.7   699 – Lowell Observatory-LONEOS MPS 37952
2001 08 23.34604 22 39 51.23 -09 15 30.1   699 – Lowell Observatory-LONEOS MPS 37952
2001 09 10.25382 22 27 13.40 -10 46 07.5 19.2   704 – Lincoln Laboratory ETS, New Mexico MPS 34977
2001 09 10.26806 22 27 12.77 -10 46 10.0 19.6   704 – Lincoln Laboratory ETS, New Mexico MPS 34977
2001 09 10.28198 22 27 12.18 -10 46 13.8 19.7   704 – Lincoln Laboratory ETS, New Mexico MPS 34977
2001 09 10.29589 22 27 11.68 -10 46 18.0 19.4   704 – Lincoln Laboratory ETS, New Mexico MPS 34977
2001 09 10.30982 22 27 11.13 -10 46 21.8 19.2   704 – Lincoln Laboratory ETS, New Mexico MPS 34977
2001 09 11.27053 22 26 33.63 -10 50 44.0 18.7   704 – Lincoln Laboratory ETS, New Mexico MPS 34977
2001 09 11.28562 22 26 33.03 -10 50 47.8 19.0   704 – Lincoln Laboratory ETS, New Mexico MPS 34977
2001 09 11.30080 22 26 32.47 -10 50 52.3 19.4   704 – Lincoln Laboratory ETS, New Mexico MPS 34977
2001 09 11.31588 22 26 31.88 -10 50 55.3 19.8   704 – Lincoln Laboratory ETS, New Mexico MPS 34977
2001 09 11.33106 22 26 31.18 -10 50 59.7 19.2   704 – Lincoln Laboratory ETS, New Mexico MPS 34977
2001 09 12.25676 22 25 55.85 -10 55 06.6 19.3   704 – Lincoln Laboratory ETS, New Mexico MPS 34977
2001 09 12.26123 22 25 55.83 -10 55 08.7 19.3   704 – Lincoln Laboratory ETS, New Mexico MPS 34977
2001 09 12.27125 22 25 55.31 -10 55 10.5 19.3   704 – Lincoln Laboratory ETS, New Mexico MPS 34977
2001 09 12.28576 22 25 54.75 -10 55 14.1 19.5   704 – Lincoln Laboratory ETS, New Mexico MPS 34977
2001 09 12.30024 22 25 54.12 -10 55 18.1 19.5   704 – Lincoln Laboratory ETS, New Mexico MPS 34977
2001 09 12.30563 22 25 53.90 -10 55 20.2 19.3   704 – Lincoln Laboratory ETS, New Mexico MPS 34977
2001 09 12.31484 22 25 53.52 -10 55 22.8 20.0   704 – Lincoln Laboratory ETS, New Mexico MPS 34977
2001 09 12.32085 22 25 53.25 -10 55 25.2 19.9   704 – Lincoln Laboratory ETS, New Mexico MPS 34977
2001 09 19.18363 22 21 55.15 -11 22 58.3 19.1   704 – Lincoln Laboratory ETS, New Mexico MPS 36218
2001 09 19.19785 22 21 54.68 -11 23 00.8 19.6   704 – Lincoln Laboratory ETS, New Mexico MPS 36218
2001 09 19.21205 22 21 54.27 -11 23 04.0 19.7   704 – Lincoln Laboratory ETS, New Mexico MPS 36218
2001 09 19.22624 22 21 53.74 -11 23 06.3 19.8   704 – Lincoln Laboratory ETS, New Mexico MPS 36218
2001 09 19.24042 22 21 53.27 -11 23 09.7 19.7   704 – Lincoln Laboratory ETS, New Mexico MPS 36218
2007 10 14.31254 03 02 38.44 +14 25 00.5 20.8 V 691 – Steward Observatory, Kitt Peak-Spacewatch MPS 226710
2007 10 14.33020 03 02 37.72 +14 24 56.5 20.0 V 691 – Steward Observatory, Kitt Peak-Spacewatch MPS 226710
2007 10 14.34786 03 02 37.05 +14 24 53.4 20.7 V 691 – Steward Observatory, Kitt Peak-Spacewatch MPS 226710
2007 11 05.25626 02 45 38.09 +13 02 53.9 19.4   704 – Lincoln Laboratory ETS, New Mexico MPS 244570
2007 11 05.29265 02 45 36.19 +13 02 44.5 20.3   704 – Lincoln Laboratory ETS, New Mexico MPS 244571
2007 11 05.30472 02 45 35.54 +13 02 41.6 19.9   704 – Lincoln Laboratory ETS, New Mexico MPS 244571
2007 11 07.28104 02 43 56.20 +12 55 07.5 19.7 V G96 – Mt. Lemmon Survey MPS 227156
2007 11 07.28731 02 43 55.88 +12 55 06.1 19.6 V G96 – Mt. Lemmon Survey MPS 227156
2007 11 07.29353 02 43 55.56 +12 55 04.5 19.7 V G96 – Mt. Lemmon Survey MPS 227156
2007 11 07.29970 02 43 55.27 +12 55 03.1 19.7 V G96 – Mt. Lemmon Survey MPS 227156
2007 11 07.31907 02 43 54.22 +12 55 00.4 20.2 V 703 – Catalina Sky Survey MPS 226710
2007 11 07.33330 02 43 53.58 +12 54 55.7 19.4 V 703 – Catalina Sky Survey MPS 226710
2007 11 07.34754 02 43 52.78 +12 54 52.5 19.9 V 703 – Catalina Sky Survey MPS 226710
2007 11 07.36178 02 43 51.99 +12 54 49.5 19.9 V 703 – Catalina Sky Survey MPS 226710
2007 11 09.29594 02 42 15.69 +12 47 31.4 19.3 V G96 – Mt. Lemmon Survey MPS 227156
2007 11 09.30250 02 42 15.33 +12 47 29.9 19.4 V G96 – Mt. Lemmon Survey MPS 227156
2007 11 09.30913 02 42 15.01 +12 47 28.3 19.4 V G96 – Mt. Lemmon Survey MPS 227156
2007 11 09.31572 02 42 14.65 +12 47 26.8 19.4 V G96 – Mt. Lemmon Survey MPS 227156
2008 12 22.29640 08 06 43.44 +19 02 16.9 21.0 V 691 – Steward Observatory, Kitt Peak-Spacewatch MPS 269188
2008 12 22.31484 08 06 42.71 +19 02 19.4 21.1 V 691 – Steward Observatory, Kitt Peak-Spacewatch MPS 269188
2008 12 22.33306 08 06 42.00 +19 02 21.8 21.1 V 691 – Steward Observatory, Kitt Peak-Spacewatch MPS 269188
2008 12 30.29428 08 01 07.43 +19 20 06.6 21.4 V 691 – Steward Observatory, Kitt Peak-Spacewatch MPS 270020
2008 12 30.31264 08 01 06.58 +19 20 09.2 21.0 V 691 – Steward Observatory, Kitt Peak-Spacewatch MPS 270020
2008 12 30.33074 08 01 05.74 +19 20 11.9 20.8 V 691 – Steward Observatory, Kitt Peak-Spacewatch MPS 270020
2009 01 16.24151 07 47 16.36 +20 02 28.0 20.5 V G96 – Mt. Lemmon Survey MPS 272234
2009 01 16.24718 07 47 16.11 +20 02 28.5 20.5 V G96 – Mt. Lemmon Survey MPS 272234
2009 01 16.25298 07 47 15.82 +20 02 29.3 20.4 V G96 – Mt. Lemmon Survey MPS 272234
2009 01 16.25886 07 47 15.54 +20 02 30.3 20.9 V G96 – Mt. Lemmon Survey MPS 272234
2010 02 15.34050 11 28 11.92 +04 30 19.3 21.3 V 691 – Steward Observatory, Kitt Peak-Spacewatch MPS 312962
2010 02 15.35812 11 28 11.29 +04 30 23.9 21.7 V 691 – Steward Observatory, Kitt Peak-Spacewatch MPS 312962
2010 02 15.37573 11 28 10.65 +04 30 29.2 21.6 V 691 – Steward Observatory, Kitt Peak-Spacewatch MPS 312962
2010 03 04.26020 11 17 02.24 +05 48 38.1 21.4 V 691 – Steward Observatory, Kitt Peak-Spacewatch MPS 316661
2010 03 04.27780 11 17 01.40 +05 48 43.2 21.4 V 691 – Steward Observatory, Kitt Peak-Spacewatch MPS 316661
2010 03 04.29541 11 17 00.67 +05 48 48.1 21.2 V 691 – Steward Observatory, Kitt Peak-Spacewatch MPS 316661
2010 03 12.19870 11 11 18.22 +06 27 27.8 21.0 V 691 – Steward Observatory, Kitt Peak-Spacewatch MPS 316661
2010 03 12.22323 11 11 17.13 +06 27 34.7 21.2 V 691 – Steward Observatory, Kitt Peak-Spacewatch MPS 316661
2010 03 12.24085 11 11 16.37 +06 27 39.6 21.6 V 691 – Steward Observatory, Kitt Peak-Spacewatch MPS 316661
2010 03 18.30057 11 06 57.20 +06 56 22.5 20.9 V G96 – Mt. Lemmon Survey MPS 317820
2010 03 18.30527 11 06 56.98 +06 56 23.1 21.0 V G96 – Mt. Lemmon Survey MPS 317820
2010 03 18.31002 11 06 56.80 +06 56 24.7 20.5 V G96 – Mt. Lemmon Survey MPS 317820
2010 03 18.31477 11 06 56.62 +06 56 25.7 20.1 V G96 – Mt. Lemmon Survey MPS 317820
2010 04 10.23630 10 53 30.58 +08 22 44.0 21.7 V G96 – Mt. Lemmon Survey MPS 323366
2010 04 10.24495 10 53 30.33 +08 22 45.0 22.5 V G96 – Mt. Lemmon Survey MPS 323366
2010 04 10.25370 10 53 30.04 +08 22 46.7 22.4 V G96 – Mt. Lemmon Survey MPS 323366
2010 04 10.26252 10 53 29.79 +08 22 47.7 22.1 V G96 – Mt. Lemmon Survey MPS 323366
2010 05 27.977860 10 52 30.816 +08 26 18.74   C51 – WISE MPS 903622
2010 05 28.242468 10 52 36.888 +08 25 39.76   C51 – WISE MPS 903622
2010 05 28.507075 10 52 42.881 +08 25 02.50   C51 – WISE MPS 903622
2010 05 28.573291 10 52 44.664 +08 24 53.14   C51 – WISE MPS 903622
2010 05 28.970201 10 52 53.770 +08 23 52.44   C51 – WISE MPS 903622
2011 05 25.29641 14 58 55.41 -14 08 14.7 20.5 V G96 – Mt. Lemmon Survey MPS 383924
2011 05 25.30681 14 58 54.91 -14 08 12.5 20.5 V G96 – Mt. Lemmon Survey MPS 383924
2011 05 25.31719 14 58 54.44 -14 08 10.7 20.3 V G96 – Mt. Lemmon Survey MPS 383924
2011 05 25.32763 14 58 53.94 -14 08 09.4 20.1 V G96 – Mt. Lemmon Survey MPS 383924
2011 06 07.23692 14 50 18.38 -13 35 54.0 20.1 V G96 – Mt. Lemmon Survey MPS 385298
2011 06 07.24216 14 50 18.24 -13 35 52.6 20.7 V G96 – Mt. Lemmon Survey MPS 385298
2011 06 07.24744 14 50 18.02 -13 35 52.0 20.1 V G96 – Mt. Lemmon Survey MPS 385298
2011 06 07.25266 14 50 17.88 -13 35 51.2 20.1 V G96 – Mt. Lemmon Survey MPS 385298
2012 08 14.49042 23 31 11.531 -04 10 01.26 19.7 w F51 – Pan-STARRS 1, Haleakala MPS 429927
